Showing default

OPS 3151, 9803

Orbit data source: Space-Track

OPS 3151, 9803 is a payload satellite owned by SAMSO (US) in GEO that was launched on Sun, 06 Feb 1977 UTC via a TITAN IIIC launch vehicle from the Air Force Eastern Test Range (AFETR). Payload-class satellites include a variety of spacecraft equipped with specific instruments for various scientific and technological missions. These include communications satellites like Starlink; space stations such as the ISS; scientific satellites like the Hubble; Earth observation satellites from companies like Planet Labs, Umbra, and HawkEye 360; GPS; miniature CubeSats for education and research; and military/defense satellites.

Loading next visibility...
Identifier
9803, 1977-007A
Orbit
GEO
Country
Flag of USUS
Related business
Manufacturer
TRW
Mission
Non-operational spacecraft
Bus & Motor
DSP P2, MRE-4
Mass
1,040 kg wet, ~980 kg dry
Launch date (UTC)
1977-02-06 (50 years ago)
Launch vehicle
TITAN IIIC
Launch site
Air Force Eastern Test Range (AFETR)
Object type
Payload
Rocket body
Debris
Shape & HBR
CYL + 4 PAN, 1.1 m
Radar Cross Section
Medium (>0.1 m² and <1 m²)

Expand to show TLE details & history
Last TLE update: 11 hours ago

TLE from 11 hours ago
0 OPS 3151
1 09803U 77007A   26256.28833538 -.00000053  00000-0  00000-0 0  9991
2 09803   4.5056 283.6745 0077537  39.8959  30.6578  0.97528305 25510
Epoch: 2026-09-13T06:55Z
TLE epoch observation values (Epoch: 2026-09-13T06:55:12.176Z)
Latitude
4.25607°
Longitude
-101.44716°
Altitude
36,285.331 km
Speed
3.067 km/s
True Right ascension
23h 38m 33s
True Declination
4° 15' 07"
Sunlit
Object was in partial shadow at epoch
Visualization orbit readout
Latitude
Unknown
Longitude
Unknown
Altitude
Unknown
Speed
Unknown
Apparent Right ascension
Unknown
Apparent Declination
Unknown
Sunlit
N/A
Visualization observer readout
Local Sidereal Time
10:13:59
Azimuth
Unknown
Elevation
Unknown
Doppler factor
Unknown
Orbital elements
Apogee altitude
36,907.751 km
Perigee altitude
36,241.664 km
Semi-major axis
42,952.844 km
Eccentricity
0.00775
Inclination
4.5056°
RAAN
283.6745°
Arg. of periapsis
39.8959°
True anomaly
31.11466°
Mean anomaly
30.6578°
Eccentric anomaly
30.88585°
Mean motion
0.24381 °/min
Orbital period
1,476.55 mins
BSTAR
0
Loading maneuver chart data...
Computing Atmospheric mass density...
Loading historical data...
Loading historical data...
Loading historical data...
Loading historical data...
Loading historical data...
Loading historical data...
Loading historical data...
Other satellites on launch #7 in the year 1977 (1977-02-06 UTC)

Documentation

Showing up to 5 results
|